Location: Home
(42.5358°N, 72.7383°W)
Time: 14:25:57
(UTC-05:00)

Explorer 11/Cluster Stage 4 - Pass Details

Date: 15 December 2025
Orbit: 463 x 1179 km, 28.8° (Epoch: 21 January)

Event Time Altitude Azimuth Distance (km) Brightness Sun altitude
Rises 17:10:06 0° 221° (SW) 4,050 11.5 -9.3°
Reaches altitude 10° 17:13:53 10° 205° (SSW) 3,081 10.4 -9.9°
Maximum altitude 17:19:01 19° 164° (SSE) 2,397 9.1 -10.8°
Drops below altitude 10° 17:23:55 10° 122° (ESE) 2,915 9.1 -11.6°
Enters shadow 17:25:52 - 111° (ESE) 3,367 9.4 -11.9°
